Showing default

EZIE-C, 63249

Orbit data source: Space-Track

EZIE-C, 63249 is an American payload satellite in SSO that was launched on Sat, 15 Mar 2025 UTC via an FALCON 9 launch vehicle from the Air Force Western Test Range (AFWTR). Payload-class satellites include a variety of spacecraft equipped with specific instruments for various scientific and technological missions. These include communications satellites like Starlink; space stations such as the ISS; scientific satellites like the Hubble; Earth observation satellites from companies like Planet Labs, Umbra, and HawkEye 360; GPS; miniature CubeSats for education and research; and military/defense satellites.

Loading next visibility...
Identifier
63249, 2025-052AR
Orbit
SSO
Country
Flag of USUS
Related business
Manufacturer
APL
Mission
Operational Civil Science
Bus & Motor
CUBESAT 6U, Unknown motor
Mass
~10 kg wet, ~10 kg dry
Launch date (UTC)
2025-03-15 (1 year ago)
Launch vehicle
FALCON 9
Launch site
Air Force Western Test Range (AFWTR)
Object type
Payload
Rocket body
Debris
Shape & HBR
Box, 0.4 m
Radar Cross Section
0.035 m², Medium (>0.1 m² and < 1m²)

Expand to show TLE details & history
Last TLE update: 10 hours ago

TLE from 10 hours ago
0 EZIE-C
1 63249U 25052AR  26144.98331650  .00004167  00000-0  36623-3 0  9991
2 63249  97.6906  37.4175 0001484 331.0339  29.0800 14.97089281 65198
Epoch: 2026-05-24T23:35Z
TLE epoch observation values (Epoch: 2026-05-24T23:35:58.545Z)
Latitude
-0.00006°
Longitude
160.84593°
Altitude
578.044 km
Speed
7.572 km/s
True Right ascension
02h 29m 40s
True Declination
0° 00' 00"
Sunlit
Object was in daylight at epoch
Visualization orbit readout
Latitude
Unknown
Longitude
Unknown
Altitude
Unknown
Speed
Unknown
Apparent Right ascension
Unknown
Apparent Declination
Unknown
Sunlit
N/A
Visualization observer readout
Local Sidereal Time
18:24:02
Azimuth
Unknown
Elevation
Unknown
Doppler factor
Unknown
Orbital elements
Apogee altitude
573.936 km
Perigee altitude
571.873 km
Semi-major axis
6,951.041 km
Eccentricity
0.00015
Inclination
97.6906°
RAAN
37.4175°
Arg. of periapsis
331.0339°
True anomaly
29.08827°
Mean anomaly
29.08°
Eccentric anomaly
29.08413°
Mean motion
3.74514 °/min
Orbital period
96.12 mins
BSTAR
0.00036623
Loading maneuver chart data...
Computing Atmospheric mass density...
Loading historical data...
Loading historical data...
Loading historical data...
Loading historical data...
Loading historical data...
Loading historical data...
Loading historical data...

Documentation

Showing up to 5 results
|